Location: Carr Mill
(33.2054°N, 85.9439°W)
Time: 23:05:46
(UTC+00:00)

CZ-2D R/B - Pass Details

Date: 29 October 2020
Orbit: 522 x 537 km, 97.4° (Epoch: 28 November)

Event Time Altitude Azimuth Distance (km) Brightness Sun altitude
Rises 23:38:42 0° 146° (SE) 2,649 6.6 -9.8°
Reaches altitude 10° 23:40:57 10° 135° (SE) 1,761 5.6 -10.3°
Maximum altitude 23:44:18 30° 73° (ENE) 954 4.0 -11.0°
Drops below altitude 10° 23:47:40 10° 12° (NNE) 1,765 5.7 -11.7°
Sets 23:49:56 0° 1° (N) 2,656 6.7 -12.2°
